Location: Corte Bragagnani
(45.3000°N, 11.1000°E)
Time: 11:11:21
(UTC+00:00)

Cosmos 468 Rocket - Pass Details

Date: 09 April 2020
Orbit: 745 x 779 km, 74.0° (Epoch: 25 May)

Event Time Altitude Azimuth Distance (km) Brightness Sun altitude
Rises 20:34:30 0° 334° (NNW) 3,215 8.4 -25.5°
Reaches altitude 10° 20:36:55 10° 330° (NNW) 2,281 7.4 -25.8°
Maximum altitude 20:41:55 53° 255° (WSW) 918 4.5 -26.4°
Enters shadow 20:42:35 49° 227° (SW) 958 4.4 -26.5°
